Regional Weather Roundup
Issued by NWS Cleveland, OH

Home | Current Version | Previous Version | Text Only | Print | Product List | Glossary Off
Versions: 1 2 3 4 5 6 7 8 9 10 11 12 13 14 15 16 17 18 19 20 21 22 23 24 25 26 27 28 29 30 31 32 33 34 35 36 37 38 39 40 41 42 43 44 45 46 47 48 49 50

000
ASUS41 KCLE 242302
RWRCLE
OHIO REGIONAL WEATHER ROUNDUP
NATIONAL WEATHER SERVICE CLEVELAND, OH
700 PM EDT SAT SEP 24 2016

NOTE: "FAIR" INDICATES FEW OR NO CLOUDS BELOW 12,000 FEET WITH NO
SIGNIFICANT WEATHER AND/OR OBSTRUCTIONS TO VISIBILITY.

OHZ001>008-015>018-024>027-034-035-043-044-250000-
   NORTHWEST OHIO

CITY           SKY/WX    TMP DP  RH WIND       PRES   REMARKS
DEFIANCE       CLEAR     71  57  61 NE6       30.18S
FINDLAY        CLEAR     71  56  58 NE12      30.17R
TOLEDO EXPRESS CLEAR     66  55  67 E6        30.19R
TOLEDO EXEC    CLEAR     67  54  63 NE7       30.21R
LIMA           CLEAR     71  59  65 NE6       30.16S
$$

OHZ009>014-019>023-028>033-038-089-250000-
   NORTHEAST OHIO

CITY           SKY/WX    TMP DP  RH WIND       PRES   REMARKS
CLE-HOPKINS    CLEAR     65  49  56 NE13      30.22R
CLE-LAKEFRONT  CLEAR     65  50  58 NE10      30.19R
CUY CO. ARPT   NOT AVBL
LORAIN-ELYRIA  CLEAR     63  50  62 NE7       30.20S
ASHTABULA      CLEAR     60  46  59 NE6       30.21F
AKRON-CANTON   CLEAR     67  49  52 NE8       30.17S
WOOSTER        CLEAR     67  53  61 N10       30.18R
MANSFIELD      CLEAR     68  51  54 N7        30.18S
YOUNGSTOWN     CLEAR     63  49  60 N10       30.19R
$$

OHZ042-051>053-060>062-070>072-077>081-250000-
  SOUTHWEST OHIO

CITY           SKY/WX    TMP DP  RH WIND       PRES   REMARKS
CINC-COVINGTON CLEAR     81  67  62 NE10      30.11S
CINC-LUNKEN    CLEAR     79  69  71 NE9       30.11R
HAMILTON       PTCLDY    78  66  66 N7        30.12S
DAYTON         PTCLDY    76  63  64 NE6       30.14F
WRIGHT-PAT AFB CLEAR     77  65  67 NE6       30.13S
DAYTON GENERAL CLEAR     77  63  61 CALM      30.13S
WILMINGTON     CLEAR     76  64  66 NE10      30.12S
$$

OHZ036-037-039>041-045>050-054>059-063>069-073>076-082>088-250000-
  CENTRAL AND SOUTHEAST OHIO

CITY           SKY/WX    TMP DP  RH WIND       PRES   REMARKS
COLUMBUS       PTCLDY    76  61  59 N6        30.12S
OSU AIRPORT    CLEAR     75  59  57 N8        30.13S
BOLTON FIELD   CLEAR     75  61  60 NE5       30.14R
RICKENBACK AFB CLEAR     75  61  61 NE6       30.13R
NEWARK         CLEAR     75  57  53 NE5       30.13S
MARION         CLEAR     71  55  56 NE10      30.16S
LANCASTER      CLEAR     77  59  53 N5        30.13S
ZANESVILLE     CLEAR     74  55  51 N5        30.14S
NEW PHILLY     CLEAR     73  49  42 N6        30.16R
$$



USA.gov is the U.S. government's official web portal to all federal, state and local government web resources and services.